{"data":{"norad_id":63059,"epoch":"2026-09-21T01:14:08.531232Z","epoch_age_seconds":117947,"freshness":"FRESH","line1":"1 63059U 25035H   26264.05148763  .00151873  00000+0  11651-2 0  9992","line2":"2 63059  42.9997 277.9939 0001309 264.3536  95.7182 15.70848917 91825","mean_motion":15.70848917,"eccentricity":0.0001309,"inclination_deg":42.9997,"raan_deg":277.9939,"arg_perigee_deg":264.3536,"mean_anomaly_deg":95.7182,"bstar":0.0011651,"rev_number":9182,"period_min":91.670178106632,"perigee_km":355.58801523358,"apogee_km":357.35113523498,"semimajor_km":6734.6065752343,"source":"CELESTRAK","updated_at":"2026-09-22T09:00:49.751414Z"}}